{"data":{"norad_id":39256,"intl_designator":"2013-050A","name":"AEHF-3 (USA 246)","alt_names":[],"object_type":"PAYLOAD","status":"ACTIVE","operator":null,"country":"US","launch_date":"2013-09-18","launch_site_code":"AFETR","launch_vehicle":null,"mission":null,"orbit_class":"UNKNOWN","rcs_meters":19.9526,"size_class":null,"mass_kg":null,"dimensions":null,"purposes":["comms"],"wikipedia_slug":null,"has_3d_model":false,"image_url":null,"decayed_at":null,"tle_current":{"epoch":"2026-09-20T03:49:04.238976Z","epoch_age_seconds":55138,"freshness":"FRESH","line1":"1 39256U 13050A   26263.15907684  .00000027  00000+0  00000+0 0  9990","line2":"2 39256   5.5235  66.2561 0092274 188.6081  37.2194  1.00270528 46606","mean_motion":1.00270528,"eccentricity":0.0092274,"inclination_deg":5.5235,"raan_deg":66.2561,"arg_perigee_deg":188.6081,"mean_anomaly_deg":37.2194,"bstar":0,"rev_number":4660,"period_min":1436.1149070642,"perigee_km":35397.873248293,"apogee_km":36176.021446911,"semimajor_km":42165.084347602,"source":"CELESTRAK","updated_at":"2026-09-20T09:00:35.206445Z"}}}